﻿_id,日時,平均風速(m/s),平均風向,最大瞬間風速(m/s),最大風速時風向,気温(℃),湿度(%),10分間移動積算雨量(mm),1時間移動積算雨量(mm),日雨量(mm),累計雨量(mm)
1,2022-06-06T00:00:00,0.4,東南東,1,東南東,17.4,98,0.5,1.5,6.5,6.5
2,2022-06-06T00:01:00,0.3,東南東,1,東南東,17.3,97.9,1,2,0.5,7
3,2022-06-06T00:02:00,0.3,東,1,東南東,17.3,97.9,1,2,0.5,7
4,2022-06-06T00:03:00,0.3,東,1,東南東,17.4,97.9,1,1.5,0.5,7
5,2022-06-06T00:04:00,0.3,東,1,東南東,17.4,98,1,1.5,0.5,7
6,2022-06-06T00:05:00,0.2,静穏,1,東南東,17.4,98,1,1.5,0.5,7
7,2022-06-06T00:06:00,0.2,静穏,0.9,東,17.3,97.9,1.5,2,1,7.5
8,2022-06-06T00:07:00,0.2,静穏,0.9,東,17.4,97.9,1,2,1,7.5
9,2022-06-06T00:08:00,0.2,静穏,0.9,東,17.4,98,1,2,1,7.5
10,2022-06-06T00:09:00,0.2,静穏,0.9,東,17.4,98,1,2,1,7.5
11,2022-06-06T00:10:00,0.3,東,1.3,東,17.2,97.9,1,2,1,7.5
12,2022-06-06T00:11:00,0.3,東,1.3,東,17.3,97.9,0.5,2,1,7.5
13,2022-06-06T00:12:00,0.4,東,1.3,東,17.3,97.9,0.5,2,1,7.5
14,2022-06-06T00:13:00,0.5,東,1.3,東,17.3,97.9,0.5,2,1,7.5
15,2022-06-06T00:14:00,0.6,東,1.5,東北東,17.4,98,0.5,2,1,7.5
16,2022-06-06T00:15:00,0.7,東,1.5,東北東,17.4,98,0.5,2,1,7.5
17,2022-06-06T00:16:00,0.8,東北東,1.5,東北東,17.3,97.9,0,2,1,7.5
18,2022-06-06T00:17:00,0.8,東北東,1.5,東北東,17.4,98,0,2,1,7.5
19,2022-06-06T00:18:00,0.9,東北東,1.6,北東,17.4,98,0.5,2.5,1.5,8
20,2022-06-06T00:19:00,1,東北東,1.6,北東,17.3,98,0.5,2.5,1.5,8
21,2022-06-06T00:20:00,1,東北東,1.6,北東,17.3,98,0.5,2.5,1.5,8
22,2022-06-06T00:21:00,1.1,東北東,1.8,東北東,17.4,98,0.5,2.5,1.5,8
23,2022-06-06T00:22:00,1.2,東北東,2.3,東北東,17.3,98,0.5,2.5,1.5,8
24,2022-06-06T00:23:00,1.2,東北東,2.3,東北東,17.3,98,0.5,2.5,1.5,8
25,2022-06-06T00:24:00,1.3,東北東,2.3,東北東,17.4,98,0.5,2.5,1.5,8
26,2022-06-06T00:25:00,1.3,東北東,2.3,東北東,17.4,98,0.5,2.5,1.5,8
27,2022-06-06T00:26:00,1.3,東北東,2.3,東北東,17.3,98,0.5,2.5,1.5,8
28,2022-06-06T00:27:00,1.3,東北東,2.3,東北東,17.4,98,1,3,2,8.5
29,2022-06-06T00:28:00,1.3,東北東,2.3,東北東,17.3,98,0.5,3,2,8.5
30,2022-06-06T00:29:00,1.2,東北東,2.3,東北東,17.4,98.1,0.5,3,2,8.5
31,2022-06-06T00:30:00,1.2,東,2.3,東北東,17.4,98.1,0.5,3,2,8.5
32,2022-06-06T00:31:00,1.1,東,2.3,東北東,17.4,98,0.5,3,2,8.5
33,2022-06-06T00:32:00,1,東,2.3,東北東,17.4,98,0.5,3,2,8.5
34,2022-06-06T00:33:00,0.9,東,2.3,東北東,17.4,98.1,0.5,3,2,8.5
35,2022-06-06T00:34:00,0.8,東,2.1,東北東,17.3,98,0.5,3,2,8.5
36,2022-06-06T00:35:00,0.8,東,1.9,東,17.3,98,0.5,3,2,8.5
37,2022-06-06T00:36:00,0.8,東,2.4,東南東,17.3,98,0.5,3,2,8.5
38,2022-06-06T00:37:00,0.8,東,2.4,東南東,17.4,98,0.5,3.5,2.5,9
39,2022-06-06T00:38:00,0.9,東,2.4,東南東,17.4,98,0.5,3.5,2.5,9
40,2022-06-06T00:39:00,0.9,東,2.4,東南東,17.4,98,0.5,3.5,2.5,9
41,2022-06-06T00:40:00,0.9,東,2.4,東南東,17.4,98,0.5,3.5,2.5,9
42,2022-06-06T00:41:00,0.9,東,2.4,東南東,17.4,98,0.5,3.5,2.5,9
43,2022-06-06T00:42:00,1.1,東,2.7,東南東,17.3,98,0.5,3.5,2.5,9
44,2022-06-06T00:43:00,1.2,東,2.7,東南東,17.4,98,0.5,3.5,2.5,9
45,2022-06-06T00:44:00,1.2,東,2.7,東南東,17.4,98,0.5,3.5,2.5,9
46,2022-06-06T00:45:00,1.3,東,2.7,東南東,17.4,98,0.5,3.5,2.5,9
47,2022-06-06T00:46:00,1.3,東,2.7,東南東,17.4,98,0.5,3.5,2.5,9
48,2022-06-06T00:47:00,1.4,東,2.7,東南東,17.3,97.9,0,3.5,2.5,9
49,2022-06-06T00:48:00,1.4,東,2.7,東南東,17.4,97.9,0,3.5,2.5,9
50,2022-06-06T00:49:00,1.4,東,2.7,東南東,17.4,98,0,3,2.5,9
51,2022-06-06T00:50:00,1.5,東,2.7,東南東,17.4,98,0,3,2.5,9
52,2022-06-06T00:51:00,1.5,東,2.7,東南東,17.4,98,0,3,2.5,9
53,2022-06-06T00:52:00,1.4,東,2.7,東,17.5,98,0,3,2.5,9
54,2022-06-06T00:53:00,1.4,東,2.7,東,17.4,97.9,0,3,2.5,9
55,2022-06-06T00:54:00,1.3,東,2.7,東,17.4,97.9,0,3,2.5,9
56,2022-06-06T00:55:00,1.3,東,2.7,東,17.4,97.8,0,3,2.5,9
57,2022-06-06T00:56:00,1.2,東,2.7,東,17.4,97.9,0,3,2.5,9
58,2022-06-06T00:57:00,1.2,東,2.1,東南東,17.4,97.9,0,2.5,2.5,9
59,2022-06-06T00:58:00,1.2,東,2.4,東北東,17.4,97.9,0,2.5,2.5,9
60,2022-06-06T00:59:00,1.2,東,2.4,東北東,17.4,97.8,0,2.5,2.5,9
61,2022-06-06T01:00:00,1.2,東,2.4,東北東,17.5,97.9,0,2.5,2.5,9
62,2022-06-06T01:01:00,1.3,東,2.4,東北東,17.4,97.8,0,2,2.5,9
63,2022-06-06T01:02:00,1.2,東,2.4,東北東,17.5,97.8,0,2,2.5,9
64,2022-06-06T01:03:00,1.3,東,2.4,東北東,17.5,97.8,0,2,2.5,9
65,2022-06-06T01:04:00,1.3,東,2.4,東北東,17.5,97.8,0,2,2.5,9
66,2022-06-06T01:05:00,1.3,東,2.5,東,17.5,97.8,0,2,2.5,9
67,2022-06-06T01:06:00,1.4,東,2.9,東,17.5,97.8,0,1.5,2.5,9
68,2022-06-06T01:07:00,1.4,東,2.9,東,17.5,97.8,0,1.5,2.5,9
69,2022-06-06T01:08:00,1.4,東,2.9,東,17.5,97.8,0,1.5,2.5,9
70,2022-06-06T01:09:00,1.4,東,2.9,東,17.5,97.8,0,1.5,2.5,9
71,2022-06-06T01:10:00,1.4,東,2.9,東,17.5,97.7,0,1.5,2.5,9
72,2022-06-06T01:11:00,1.4,東,2.9,東,17.5,97.7,0,1.5,2.5,9
73,2022-06-06T01:12:00,1.5,東,2.9,東,17.5,97.7,0,1.5,2.5,9
74,2022-06-06T01:13:00,1.5,東,2.9,東,17.5,97.7,0,1.5,2.5,9
75,2022-06-06T01:14:00,1.6,東,2.9,東,17.6,97.7,0,1.5,2.5,9
76,2022-06-06T01:15:00,1.6,東,2.9,東,17.5,97.7,0,1.5,2.5,9
77,2022-06-06T01:16:00,1.5,東南東,3.3,東南東,17.5,97.7,0,1.5,2.5,9
78,2022-06-06T01:17:00,1.5,東南東,3.3,東南東,17.5,97.7,0,1.5,2.5,9
79,2022-06-06T01:18:00,1.6,東南東,3.3,東南東,17.4,97.7,0,1,2.5,9
80,2022-06-06T01:19:00,1.6,東南東,4,東南東,17.4,97.6,0,1,2.5,9
81,2022-06-06T01:20:00,1.7,東南東,4,東南東,17.5,97.6,0,1,2.5,9
82,2022-06-06T01:21:00,1.7,東南東,4,東南東,17.5,97.6,0,1,2.5,9
83,2022-06-06T01:22:00,1.6,東南東,4,東南東,17.5,97.6,0,1,2.5,9
84,2022-06-06T01:23:00,1.5,東南東,4,東南東,17.6,97.6,0,1,2.5,9
85,2022-06-06T01:24:00,1.4,東南東,4,東南東,17.6,97.6,0,1,2.5,9
86,2022-06-06T01:25:00,1.3,東南東,4,東南東,17.7,97.5,0.5,1.5,3,9.5
87,2022-06-06T01:26:00,1.2,東南東,4,東南東,17.7,97.4,0.5,1.5,3,9.5
88,2022-06-06T01:27:00,1.1,東南東,4,東南東,17.6,97.3,0.5,1,3,9.5
89,2022-06-06T01:28:00,1,東南東,4,東南東,17.6,97.1,0.5,1,3,9.5
90,2022-06-06T01:29:00,0.8,東南東,3.7,南南東,17.7,97.1,0.5,1,3,9.5
91,2022-06-06T01:30:00,0.8,東,2.8,南南東,17.6,96.9,0.5,1,3,9.5
92,2022-06-06T01:31:00,0.7,東,1.8,東北東,17.6,96.9,0.5,1,3,9.5
93,2022-06-06T01:32:00,0.7,東,1.9,南,17.7,96.8,0.5,1,3,9.5
94,2022-06-06T01:33:00,0.7,東,1.9,南,17.7,96.7,0.5,1,3,9.5
95,2022-06-06T01:34:00,0.8,東,1.9,南,17.7,96.6,0.5,1,3,9.5
96,2022-06-06T01:35:00,0.8,東南東,1.9,南,17.7,96.6,0,1,3,9.5
97,2022-06-06T01:36:00,0.8,東南東,1.9,南,17.7,96.5,0,1,3,9.5
98,2022-06-06T01:37:00,0.8,東南東,1.9,南,17.7,96.4,0,0.5,3,9.5
99,2022-06-06T01:38:00,0.8,東南東,1.9,南,17.7,96.3,0,0.5,3,9.5
100,2022-06-06T01:39:00,0.9,東南東,1.9,南,17.7,96.4,0,0.5,3,9.5
101,2022-06-06T01:40:00,0.9,東南東,2.8,東南東,17.6,96.3,0,0.5,3,9.5
102,2022-06-06T01:41:00,1.1,東南東,3.6,東南東,17.6,96.2,0,0.5,3,9.5
103,2022-06-06T01:42:00,1.1,東南東,3.6,東南東,17.6,96.3,0,0.5,3,9.5
104,2022-06-06T01:43:00,1,東南東,3.6,東南東,17.7,96.3,0,0.5,3,9.5
105,2022-06-06T01:44:00,1,東南東,3.6,東南東,17.7,96.4,0,0.5,3,9.5
106,2022-06-06T01:45:00,1.1,東南東,3.6,東南東,17.7,96.3,0,0.5,3,9.5
107,2022-06-06T01:46:00,1.1,東南東,3.6,東南東,17.6,96.3,0,0.5,3,9.5
108,2022-06-06T01:47:00,1.2,東,3.6,東南東,17.6,96.3,0,0.5,3,9.5
109,2022-06-06T01:48:00,1.2,東,3.6,東南東,17.6,96.2,0,0.5,3,9.5
110,2022-06-06T01:49:00,1.3,東,3.6,東南東,17.6,96.2,0,0.5,3,9.5
111,2022-06-06T01:50:00,1.2,東,3.6,東南東,17.6,96.3,0,0.5,3,9.5
112,2022-06-06T01:51:00,1.2,東,2.1,東南東,17.6,96.3,0,0.5,3,9.5
113,2022-06-06T01:52:00,1.2,東,2.3,東北東,17.6,96.3,0,0.5,3,9.5
114,2022-06-06T01:53:00,1.3,東,2.3,東北東,17.6,96.4,0,0.5,3,9.5
115,2022-06-06T01:54:00,1.4,東,2.3,東北東,17.6,96.4,0,0.5,3,9.5
116,2022-06-06T01:55:00,1.4,東,2.3,東北東,17.6,96.4,0,0.5,3,9.5
117,2022-06-06T01:56:00,1.3,東,2.3,東北東,17.6,96.4,0,0.5,3,9.5
118,2022-06-06T01:57:00,1.2,東,2.3,東北東,17.6,96.5,0,0.5,3,9.5
119,2022-06-06T01:58:00,1.2,東,2.3,東北東,17.6,96.6,0,0.5,3,9.5
120,2022-06-06T01:59:00,1.1,東,2.3,東北東,17.6,96.5,0,0.5,3,9.5
121,2022-06-06T02:00:00,1,東,2.3,東北東,17.6,96.5,0,0.5,3,9.5
122,2022-06-06T02:01:00,0.9,東,2.3,東北東,17.6,96.6,0,0.5,3,9.5
123,2022-06-06T02:02:00,0.8,東,2.3,東南東,17.5,96.6,0,0.5,3,9.5
124,2022-06-06T02:03:00,0.8,東,2.3,東南東,17.5,96.6,0,0.5,3,9.5
125,2022-06-06T02:04:00,0.7,東,1.5,東北東,17.6,96.6,0,0.5,3,9.5
126,2022-06-06T02:05:00,0.6,東,1.6,東南東,17.5,96.7,0.5,1,3.5,10
127,2022-06-06T02:06:00,0.7,東,1.7,東,17.5,96.6,0.5,1,3.5,10
128,2022-06-06T02:07:00,0.7,東,1.9,東南東,17.4,96.7,0.5,1,3.5,10
129,2022-06-06T02:08:00,0.8,東,1.9,東南東,17.4,96.6,0.5,1,3.5,10
130,2022-06-06T02:09:00,0.8,東,1.9,東南東,17.5,96.9,0.5,1,3.5,10
131,2022-06-06T02:10:00,0.8,東,1.9,東南東,17.4,96.8,0.5,1,3.5,10
132,2022-06-06T02:11:00,0.7,東,1.9,東南東,17.5,96.8,0.5,1,3.5,10
133,2022-06-06T02:12:00,0.7,東,1.9,東南東,17.4,96.8,0.5,1,3.5,10
134,2022-06-06T02:13:00,0.7,東,1.9,東南東,17.4,96.8,0.5,1,3.5,10
135,2022-06-06T02:14:00,0.7,東,1.9,東南東,17.4,96.7,1,1.5,4,10.5
136,2022-06-06T02:15:00,0.7,東,1.9,東南東,17.5,96.8,0.5,1.5,4,10.5
137,2022-06-06T02:16:00,0.7,東,1.9,東南東,17.5,96.8,0.5,1.5,4,10.5
138,2022-06-06T02:17:00,0.8,東北東,1.7,東北東,17.5,96.8,0.5,1.5,4,10.5
139,2022-06-06T02:18:00,0.8,東北東,1.7,東北東,17.5,96.7,0.5,1.5,4,10.5
140,2022-06-06T02:19:00,0.8,東北東,1.8,北東,17.6,96.7,0.5,1.5,4,10.5
141,2022-06-06T02:20:00,0.9,東北東,1.8,北東,17.5,96.6,0.5,1.5,4,10.5
142,2022-06-06T02:21:00,0.9,東北東,1.8,北東,17.5,96.7,0.5,1.5,4,10.5
143,2022-06-06T02:22:00,0.9,北東,1.8,北東,17.6,96.8,0.5,1.5,4,10.5
144,2022-06-06T02:23:00,0.9,北東,1.8,北東,17.5,96.8,0.5,1.5,4,10.5
145,2022-06-06T02:24:00,0.9,北東,1.8,北東,17.5,96.8,0,1.5,4,10.5
146,2022-06-06T02:25:00,0.9,北北東,1.8,北東,17.5,96.8,0,1,4,10.5
147,2022-06-06T02:26:00,0.9,北北東,2.5,北,17.5,96.9,0,1,4,10.5
148,2022-06-06T02:27:00,0.9,北北東,2.5,北,17.4,96.9,0,1,4,10.5
149,2022-06-06T02:28:00,1,北北東,2.9,北,17.4,96.9,0,1,4,10.5
150,2022-06-06T02:29:00,0.9,北,2.9,北,17.4,96.9,0,1,4,10.5
151,2022-06-06T02:30:00,1,北,2.9,北,17.4,97.1,0,1,4,10.5
152,2022-06-06T02:31:00,1.1,北,2.9,北,17.4,97.1,0,1,4,10.5
153,2022-06-06T02:32:00,1.3,北,3.1,北北東,17.3,97,0,1,4,10.5
154,2022-06-06T02:33:00,1.4,北北東,3.3,北東,17.3,97,0,1,4,10.5
155,2022-06-06T02:34:00,1.6,北北東,3.3,北東,17.4,97.1,0.5,1.5,4.5,11
156,2022-06-06T02:35:00,1.8,北北東,3.3,北東,17.3,97.1,0.5,1.5,4.5,11
157,2022-06-06T02:36:00,1.8,北北東,3.3,北東,17.4,97.1,0.5,1.5,4.5,11
158,2022-06-06T02:37:00,1.8,北北東,3.3,北東,17.3,97.1,0.5,1.5,4.5,11
159,2022-06-06T02:38:00,1.8,北北東,3.3,北東,17.3,97.2,0.5,1.5,4.5,11
160,2022-06-06T02:39:00,1.8,北北東,3.3,北東,17.4,97.2,1,2,5,11.5
161,2022-06-06T02:40:00,1.8,北北東,3.3,北東,17.3,97.2,1,2,5,11.5
162,2022-06-06T02:41:00,1.7,北北東,3.3,北東,17.3,97.1,1,2,5,11.5
163,2022-06-06T02:42:00,1.5,北北東,3.3,北東,17.2,97.2,1.5,2.5,5.5,12
164,2022-06-06T02:43:00,1.4,北東,3.2,北東,17.1,97.1,1.5,2.5,5.5,12
165,2022-06-06T02:44:00,1.1,北東,3,北北東,17.2,97.2,1,2.5,5.5,12
166,2022-06-06T02:45:00,1,北東,2,北北東,17.2,97.3,1,2.5,5.5,12
167,2022-06-06T02:46:00,0.9,北東,2,北北東,17.2,97.4,1.5,3,6,12.5
168,2022-06-06T02:47:00,0.9,北東,2,北北東,17.2,97.3,1.5,3,6,12.5
169,2022-06-06T02:48:00,0.8,東北東,2,北北東,17.2,97.4,1.5,3,6,12.5
170,2022-06-06T02:49:00,0.7,東北東,1.9,北北東,17.2,97.4,1,3,6,12.5
171,2022-06-06T02:50:00,0.6,東北東,1.6,東南東,17.1,97.4,1,3,6,12.5
172,2022-06-06T02:51:00,0.6,東,1.6,東南東,17.1,97.4,1.5,3.5,6.5,13
173,2022-06-06T02:52:00,0.6,東,1.7,東,17.1,97.5,1,3.5,6.5,13
174,2022-06-06T02:53:00,0.7,東,1.7,東,17.1,97.5,1,3.5,6.5,13
175,2022-06-06T02:54:00,0.7,東,1.7,東,17.1,97.5,1,3.5,6.5,13
176,2022-06-06T02:55:00,0.7,東,1.7,東,17.1,97.6,1,3.5,6.5,13
177,2022-06-06T02:56:00,0.7,東,1.7,東,17.1,97.6,1,4,7,13.5
178,2022-06-06T02:57:00,0.7,東,1.7,東,17,97.6,1,4,7,13.5
179,2022-06-06T02:58:00,0.7,東,1.7,東,17,97.6,1,4,7,13.5
180,2022-06-06T02:59:00,0.7,東,1.7,東,17,97.6,1,4,7,13.5
181,2022-06-06T03:00:00,0.7,東,1.7,東,17,97.7,1,4,7,13.5
182,2022-06-06T03:01:00,0.7,東,1.7,東,17,97.7,0.5,4,7,13.5
183,2022-06-06T03:02:00,0.7,東,1.7,東,17,97.7,0.5,4,7,13.5
184,2022-06-06T03:03:00,0.6,東,1.7,東,17,97.7,1,4.5,7.5,14
185,2022-06-06T03:04:00,0.6,東,1.7,東,17,97.8,1,4.5,7.5,14
186,2022-06-06T03:05:00,0.6,東,1.5,東,17,97.8,1,4,7.5,14
187,2022-06-06T03:06:00,0.6,東,1.5,東,16.9,97.8,0.5,4,7.5,14
188,2022-06-06T03:07:00,0.5,東南東,1.5,東,16.8,97.7,0.5,4,7.5,14
189,2022-06-06T03:08:00,0.4,東南東,1.4,東,16.9,97.7,0.5,4,7.5,14
190,2022-06-06T03:09:00,0.5,東南東,1.4,東,16.8,97.7,1,4.5,8,14.5
191,2022-06-06T03:10:00,0.4,東南東,1.3,東,16.9,97.8,1,4.5,8,14.5
192,2022-06-06T03:11:00,0.4,東南東,1.3,東,16.9,97.8,1,4.5,8,14.5
193,2022-06-06T03:12:00,0.3,東南東,1,南東,16.9,97.8,1,4.5,8,14.5
194,2022-06-06T03:13:00,0.3,東南東,1,南東,16.8,97.8,0.5,4.5,8,14.5
195,2022-06-06T03:14:00,0.3,東南東,1,南東,16.9,97.8,0.5,4,8,14.5
196,2022-06-06T03:15:00,0.3,東南東,1,南東,16.8,97.8,0.5,4,8,14.5
197,2022-06-06T03:16:00,0.3,東南東,0.8,東,16.8,97.7,1,4.5,8.5,15
198,2022-06-06T03:17:00,0.3,東南東,0.8,東,16.8,97.8,1,4.5,8.5,15
199,2022-06-06T03:18:00,0.3,東南東,0.8,東,16.8,97.8,1,4.5,8.5,15
200,2022-06-06T03:19:00,0.2,静穏,0.8,東,16.8,97.8,0.5,4.5,8.5,15
201,2022-06-06T03:20:00,0.2,静穏,0.8,東,16.9,97.9,0.5,4.5,8.5,15
202,2022-06-06T03:21:00,0.2,静穏,0.8,東,16.7,97.8,1,5,9,15.5
203,2022-06-06T03:22:00,0.2,静穏,0.8,東,16.8,97.7,1,5,9,15.5
204,2022-06-06T03:23:00,0.2,静穏,0.8,東,16.9,97.9,1,5,9,15.5
205,2022-06-06T03:24:00,0.2,静穏,0.8,東,16.9,97.9,1,5,9,15.5
206,2022-06-06T03:25:00,0.2,静穏,0.9,東南東,16.8,97.8,1,5,9,15.5
207,2022-06-06T03:26:00,0.2,静穏,1,東,16.8,97.8,0.5,5,9,15.5
208,2022-06-06T03:27:00,0.3,東南東,1,東,16.8,97.7,1,5.5,9.5,16
209,2022-06-06T03:28:00,0.3,東南東,1,東,16.8,97.7,1,5.5,9.5,16
210,2022-06-06T03:29:00,0.4,東南東,1.3,東,16.8,97.8,1,5.5,9.5,16
211,2022-06-06T03:30:00,0.5,東,1.3,東,16.8,97.8,1,5.5,9.5,16
212,2022-06-06T03:31:00,0.5,東,1.3,東,16.9,97.8,0.5,5.5,9.5,16
213,2022-06-06T03:32:00,0.6,東,1.3,東,16.8,97.8,0.5,5.5,9.5,16
214,2022-06-06T03:33:00,0.6,東,1.3,東,16.8,97.8,1,6,10,16.5
215,2022-06-06T03:34:00,0.7,東,1.5,東南東,16.8,97.8,1,5.5,10,16.5
216,2022-06-06T03:35:00,0.7,東,1.5,東南東,16.8,97.8,1,5.5,10,16.5
217,2022-06-06T03:36:00,0.7,東,1.5,東南東,16.8,97.8,1,5.5,10,16.5
218,2022-06-06T03:37:00,0.7,東,1.5,東南東,16.9,97.8,0.5,5.5,10,16.5
219,2022-06-06T03:38:00,0.7,東,1.5,東南東,16.9,97.9,0.5,5.5,10,16.5
220,2022-06-06T03:39:00,0.6,東,1.5,東南東,16.9,97.9,1,5.5,10.5,17
221,2022-06-06T03:40:00,0.6,東,1.5,東南東,16.9,97.9,1,5.5,10.5,17
222,2022-06-06T03:41:00,0.6,東南東,1.5,東南東,16.8,97.8,1,5.5,10.5,17
223,2022-06-06T03:42:00,0.6,東南東,1.5,東南東,16.7,97.8,1,5,10.5,17
224,2022-06-06T03:43:00,0.7,東南東,1.5,東南東,16.7,97.8,1,5.5,11,17.5
225,2022-06-06T03:44:00,0.6,東南東,1.5,東,16.7,97.8,1,5.5,11,17.5
226,2022-06-06T03:45:00,0.7,南東,1.8,南南東,16.7,97.9,1,5.5,11,17.5
227,2022-06-06T03:46:00,0.7,南東,1.8,南南東,16.6,97.8,1,5,11,17.5
228,2022-06-06T03:47:00,0.8,南南東,1.8,南南東,16.6,97.8,1,5,11,17.5
229,2022-06-06T03:48:00,0.9,南南東,1.8,南南東,16.6,97.9,1,5,11,17.5
230,2022-06-06T03:49:00,1,南南東,1.8,南南東,16.5,97.8,0.5,5,11,17.5
231,2022-06-06T03:50:00,1,南南東,1.8,南南東,16.5,97.8,0.5,5,11,17.5
232,2022-06-06T03:51:00,1,南南東,1.8,南南東,16.6,97.9,0.5,4.5,11,17.5
233,2022-06-06T03:52:00,1,南南東,1.8,南南東,16.5,97.9,0.5,4.5,11,17.5
234,2022-06-06T03:53:00,1,南南東,1.8,南南東,16.5,97.8,0.5,5,11.5,18
235,2022-06-06T03:54:00,1,南南東,1.8,南南東,16.5,97.9,0.5,5,11.5,18
236,2022-06-06T03:55:00,1,南南東,1.6,南,16.5,97.9,0.5,5,11.5,18
237,2022-06-06T03:56:00,0.9,南南東,1.3,南東,16.5,97.9,0.5,4.5,11.5,18
238,2022-06-06T03:57:00,0.8,南南東,1.3,南東,16.5,97.9,0.5,4.5,11.5,18
239,2022-06-06T03:58:00,0.6,南南東,1.3,南東,16.5,97.9,1,5,12,18.5
240,2022-06-06T03:59:00,0.6,南南東,1.3,南東,16.6,97.9,1,5,12,18.5
241,2022-06-06T04:00:00,0.5,南南東,1.3,南東,16.6,98,1,5,12,18.5
242,2022-06-06T04:01:00,0.5,南南東,1.3,南東,16.6,97.9,1.5,5.5,12.5,19
243,2022-06-06T04:02:00,0.5,南南東,1.3,北北西,16.6,97.9,1.5,5.5,12.5,19
244,2022-06-06T04:03:00,0.5,南,1.4,北北西,16.6,98,1,5,12.5,19
245,2022-06-06T04:04:00,0.5,北西,1.5,北北西,16.7,98,1.5,5.5,13,19.5
246,2022-06-06T04:05:00,0.5,北西,1.5,北北西,16.7,98,1.5,5.5,13,19.5
247,2022-06-06T04:06:00,0.6,北北西,1.5,北北西,16.7,97.9,2,6,13.5,20
248,2022-06-06T04:07:00,0.7,北北西,1.5,北北西,16.7,98,2,6,13.5,20
249,2022-06-06T04:08:00,0.7,北北西,1.5,北北西,16.8,98,1.5,6,13.5,20
250,2022-06-06T04:09:00,0.8,北,1.5,北北西,16.8,98,2,6,14,20.5
251,2022-06-06T04:10:00,0.8,北,1.5,北北西,16.8,98,2,6,14,20.5
252,2022-06-06T04:11:00,0.7,北,1.5,北北西,16.7,98,2,6.5,14.5,21
253,2022-06-06T04:12:00,0.6,北北東,1.5,北北西,16.8,98,2,6.5,14.5,21
254,2022-06-06T04:13:00,0.5,北東,1.5,北北西,16.7,97.9,2.5,7,15,21.5
255,2022-06-06T04:14:00,0.4,東北東,1.3,北,16.7,97.9,2,7,15,21.5
256,2022-06-06T04:15:00,0.3,東,1.3,北,16.6,97.9,2,7,15,21.5
257,2022-06-06T04:16:00,0.2,静穏,1.3,北,16.6,97.9,2,7,15.5,22
258,2022-06-06T04:17:00,0.1,静穏,0.7,北北東,16.5,97.9,2,7,15.5,22
259,2022-06-06T04:18:00,,"",,"",,,,,,
260,2022-06-06T04:19:00,0.1,静穏,0.6,東南東,16.5,97.9,1.5,7,15.5,22
261,2022-06-06T04:20:00,0.1,静穏,0.6,東南東,16.6,98,2,7.5,16,22.5
262,2022-06-06T04:21:00,0.1,静穏,0.6,東南東,16.6,97.9,1.5,7,16,22.5
263,2022-06-06T04:22:00,0,静穏,0.5,東南東,16.6,97.9,1.5,7,16,22.5
264,2022-06-06T04:23:00,0,静穏,0.6,東南東,16.5,97.9,1,7,16,22.5
265,2022-06-06T04:24:00,0.1,静穏,0.8,東,16.5,97.9,1.5,7.5,16.5,23
266,2022-06-06T04:25:00,0.1,静穏,0.8,東,16.6,97.9,1.5,7.5,16.5,23
267,2022-06-06T04:26:00,0.2,静穏,0.8,東,16.6,98,1,7.5,16.5,23
268,2022-06-06T04:27:00,0.2,静穏,1.1,東南東,16.7,98,1,7,16.5,23
269,2022-06-06T04:28:00,0.3,南東,1.1,東南東,16.7,98,1.5,7.5,17,23.5
270,2022-06-06T04:29:00,0.3,東南東,1.1,東南東,16.7,98,1.5,7.5,17,23.5
271,2022-06-06T04:30:00,0.3,東南東,1.1,東南東,16.6,98,1,7.5,17,23.5
272,2022-06-06T04:31:00,0.4,東,1.1,東南東,16.6,98,1.5,8,17.5,24
273,2022-06-06T04:32:00,0.4,東,1.1,東南東,16.6,98,1.5,8,17.5,24
274,2022-06-06T04:33:00,0.5,東,1.1,東南東,16.6,97.9,1.5,7.5,17.5,24
275,2022-06-06T04:34:00,0.5,東北東,1.1,東南東,16.6,98,1,7.5,17.5,24
276,2022-06-06T04:35:00,0.4,東北東,1.1,東南東,16.6,98,1,7.5,17.5,24
277,2022-06-06T04:36:00,0.4,北東,1.1,東南東,16.7,98,1.5,8,18,24.5
278,2022-06-06T04:37:00,0.4,北東,1,東北東,16.7,98,1.5,8,18,24.5
279,2022-06-06T04:38:00,0.3,北東,1,東北東,16.6,98,1,8,18,24.5
280,2022-06-06T04:39:00,0.3,東北東,1,東北東,16.5,98,1,7.5,18,24.5
281,2022-06-06T04:40:00,0.3,東北東,1,東北東,16.5,97.9,1.5,8,18.5,25
282,2022-06-06T04:41:00,0.3,東北東,1,東北東,16.5,97.9,1,8,18.5,25
283,2022-06-06T04:42:00,0.3,東,1,東北東,16.5,98,1,8,18.5,25
284,2022-06-06T04:43:00,0.3,東,1,東北東,16.5,97.9,1.5,8,19,25.5
285,2022-06-06T04:44:00,0.4,東南東,1.5,東南東,16.5,98,1.5,8,19,25.5
286,2022-06-06T04:45:00,0.4,東南東,1.5,東南東,16.5,98,1.5,8,19,25.5
287,2022-06-06T04:46:00,0.4,南東,1.5,東南東,16.5,98,1.5,8.5,19.5,26
288,2022-06-06T04:47:00,0.5,南東,1.5,東南東,16.5,98,1.5,8.5,19.5,26
289,2022-06-06T04:48:00,0.6,南東,1.5,東南東,16.5,98,1.5,8.5,19.5,26
290,2022-06-06T04:49:00,0.6,東南東,1.5,東南東,16.4,97.9,1.5,8.5,19.5,26
291,2022-06-06T04:50:00,0.6,東南東,1.5,東南東,16.5,98,1,8.5,19.5,26
292,2022-06-06T04:51:00,0.6,東南東,1.5,東南東,16.6,98,1.5,9,20,26.5
293,2022-06-06T04:52:00,0.6,東南東,1.5,東南東,16.7,98.1,1.5,9,20,26.5
294,2022-06-06T04:53:00,0.6,東南東,1.5,東南東,16.6,98,1,8.5,20,26.5
295,2022-06-06T04:54:00,0.5,東南東,1.4,南南東,16.6,98,1,8.5,20,26.5
296,2022-06-06T04:55:00,0.5,東南東,1.4,南南東,16.6,98,1,8.5,20,26.5
297,2022-06-06T04:56:00,0.6,東南東,1.4,南南東,16.6,97.9,0.5,8.5,20,26.5
298,2022-06-06T04:57:00,0.5,東,1.4,南南東,16.5,97.9,1,9,20.5,27
299,2022-06-06T04:58:00,0.5,東,1.3,東北東,16.6,97.9,1,8.5,20.5,27
300,2022-06-06T04:59:00,0.6,東,1.5,東,16.6,97.9,1,8.5,20.5,27
301,2022-06-06T05:00:00,0.6,東,1.5,東,16.6,97.9,1,8.5,20.5,27
302,2022-06-06T05:01:00,0.6,東,1.5,東,16.7,97.9,0.5,8,20.5,27
303,2022-06-06T05:02:00,,"",,"",,,,,,
304,2022-06-06T05:03:00,0.7,東北東,1.5,東,16.6,97.8,0.5,8,20.5,27
305,2022-06-06T05:04:00,0.7,東北東,1.5,東,16.6,97.8,0.5,7.5,20.5,27
306,2022-06-06T05:05:00,0.8,東北東,1.5,東,16.7,97.8,1,8,21,27.5
307,2022-06-06T05:06:00,0.7,東北東,1.5,東,16.7,97.8,1,7.5,21,27.5
308,2022-06-06T05:07:00,0.7,東北東,1.5,東,16.6,97.8,0.5,7.5,21,27.5
309,2022-06-06T05:08:00,0.7,東北東,1.5,東,16.5,97.7,0.5,7.5,21,27.5
310,2022-06-06T05:09:00,0.6,東北東,1.4,東北東,16.5,97.7,0.5,7,21,27.5
311,2022-06-06T05:10:00,0.5,東北東,1.4,東北東,16.5,97.7,0.5,7,21,27.5
312,2022-06-06T05:11:00,0.6,東北東,1.4,東北東,16.5,97.7,0.5,6.5,21,27.5
313,2022-06-06T05:12:00,0.6,北東,1.7,北東,16.5,97.7,0.5,6.5,21,27.5
314,2022-06-06T05:13:00,0.6,北東,1.7,北東,16.5,97.7,0.5,6,21,27.5
315,2022-06-06T05:14:00,0.6,東北東,1.7,北東,16.6,97.8,0.5,6,21,27.5
316,2022-06-06T05:15:00,0.6,東北東,1.7,北東,16.7,97.7,0,6,21,27.5
317,2022-06-06T05:16:00,0.7,東北東,1.7,北東,16.6,97.7,0,5.5,21,27.5
318,2022-06-06T05:17:00,0.7,北東,1.7,北東,16.6,97.6,0.5,6,21.5,28
319,2022-06-06T05:18:00,0.7,北東,1.7,北東,16.6,97.6,0.5,6,21.5,28
320,2022-06-06T05:19:00,0.8,北東,1.8,東北東,16.7,97.7,0.5,6,21.5,28
321,2022-06-06T05:20:00,0.9,北東,2.2,東北東,16.6,97.6,0.5,5.5,21.5,28
322,2022-06-06T05:21:00,0.9,北東,2.2,東北東,16.5,97.5,0.5,5.5,21.5,28
323,2022-06-06T05:22:00,0.9,東北東,2.2,東北東,16.6,97.5,0.5,5.5,21.5,28
324,2022-06-06T05:23:00,0.9,東北東,2.2,東北東,16.6,97.6,0.5,5.5,21.5,28
325,2022-06-06T05:24:00,0.9,東北東,2.2,東北東,16.5,97.5,0.5,5,21.5,28
326,2022-06-06T05:25:00,0.9,東北東,2.2,東北東,16.6,97.5,0.5,5,21.5,28
327,2022-06-06T05:26:00,0.9,東北東,2.2,東北東,16.7,97.6,0.5,5,21.5,28
328,2022-06-06T05:27:00,0.8,東,2.2,東北東,16.6,97.6,0,5,21.5,28
329,2022-06-06T05:28:00,0.8,東,2.2,東北東,16.7,97.5,0,4.5,21.5,28
330,2022-06-06T05:29:00,0.8,東,2.2,東北東,16.7,97.5,0,4.5,21.5,28
331,2022-06-06T05:30:00,0.6,東南東,1.7,東,16.7,97.6,0,4.5,21.5,28
332,2022-06-06T05:31:00,0.5,東南東,1.7,東,16.7,97.4,0,4,21.5,28
333,2022-06-06T05:32:00,0.5,東南東,1.7,東,16.7,97.3,0,4,21.5,28
334,2022-06-06T05:33:00,0.5,南東,1.3,南南東,16.6,97.2,0,4,21.5,28
335,2022-06-06T05:34:00,0.5,南東,1.3,南南東,16.7,97.2,0,4,21.5,28
336,2022-06-06T05:35:00,0.4,南東,1.3,南南東,16.8,97.3,0.5,4.5,22,28.5
337,2022-06-06T05:36:00,0.4,東南東,1.3,南南東,16.7,97.2,0.5,4,22,28.5
338,2022-06-06T05:37:00,0.4,東南東,1.2,南南東,16.6,97,0.5,4,22,28.5
339,2022-06-06T05:38:00,0.4,東南東,1.2,南南東,16.6,97,0.5,4,22,28.5
340,2022-06-06T05:39:00,0.4,東南東,1.2,南南東,16.7,97,0.5,4,22,28.5
341,2022-06-06T05:40:00,0.4,東南東,2.8,北東,16.7,97.1,0.5,3.5,22,28.5
342,2022-06-06T05:41:00,0.5,東,2.8,北東,16.7,97,0.5,3.5,22,28.5
343,2022-06-06T05:42:00,0.5,東北東,2.8,北東,16.7,97,0.5,3.5,22,28.5
344,2022-06-06T05:43:00,0.4,東北東,2.8,北東,16.8,96.9,1,3.5,22.5,29
345,2022-06-06T05:44:00,0.5,東,2.8,北東,16.7,96.9,1,3.5,22.5,29
346,2022-06-06T05:45:00,0.6,東,2.8,北東,16.7,96.6,0.5,3.5,22.5,29
347,2022-06-06T05:46:00,0.5,東南東,2.8,北東,16.6,96.5,0.5,3,22.5,29
348,2022-06-06T05:47:00,0.5,東南東,2.8,北東,16.6,96.5,0.5,3,22.5,29
349,2022-06-06T05:48:00,0.6,南東,2.8,北東,16.5,96.5,0.5,3,22.5,29
350,2022-06-06T05:49:00,0.6,南南東,2.8,北東,16.5,96.5,0.5,3,22.5,29
351,2022-06-06T05:50:00,0.6,南南東,2.3,北東,16.5,96.6,0.5,3,22.5,29
352,2022-06-06T05:51:00,0.6,南,1.6,北西,16.6,96.6,0.5,2.5,22.5,29
353,2022-06-06T05:52:00,0.6,南南西,1.6,北西,16.6,96.8,0.5,2.5,22.5,29
354,2022-06-06T05:53:00,0.6,西北西,1.6,北西,16.6,96.8,0,2.5,22.5,29
355,2022-06-06T05:54:00,0.5,北北西,1.6,北西,16.7,96.8,0,2.5,22.5,29
356,2022-06-06T05:55:00,0.5,北北西,1.6,北西,16.6,96.7,0,2.5,22.5,29
357,2022-06-06T05:56:00,0.6,北北西,1.6,北西,16.7,96.6,0,2.5,22.5,29
358,2022-06-06T05:57:00,0.5,北北西,1.6,北西,16.8,96.8,0,2,22.5,29
359,2022-06-06T05:58:00,0.5,北,1.6,北西,16.8,96.8,0,2,22.5,29
360,2022-06-06T05:59:00,0.5,北,1.6,北西,16.7,96.7,0,2,22.5,29
361,2022-06-06T06:00:00,0.4,北,1.6,北西,16.7,96.5,0.5,2.5,23,29.5
362,2022-06-06T06:01:00,0.3,北北西,1.7,西北西,16.5,96.4,0.5,2.5,23,29.5
363,2022-06-06T06:02:00,0.4,北西,2.1,西北西,16.5,96.4,0.5,2.5,23,29.5
364,2022-06-06T06:03:00,0.4,北西,2.1,西北西,16.6,96.6,0.5,2.5,23,29.5
365,2022-06-06T06:04:00,0.5,北西,2.1,西北西,16.6,96.7,0.5,2.5,23,29.5
366,2022-06-06T06:05:00,0.5,北北西,2.1,西北西,16.6,96.9,0.5,2,23,29.5
367,2022-06-06T06:06:00,0.4,北西,2.1,西北西,16.6,96.7,0.5,2,23,29.5
368,2022-06-06T06:07:00,0.5,北西,2.1,西北西,16.6,96.8,0.5,2,23,29.5
369,2022-06-06T06:08:00,0.5,北北西,2.1,西北西,16.6,96.7,0.5,2,23,29.5
370,2022-06-06T06:09:00,0.6,北北西,2.1,西北西,16.6,96.9,0.5,2,23,29.5
371,2022-06-06T06:10:00,0.6,北,2.1,西北西,16.7,96.8,0,2,23,29.5
372,2022-06-06T06:11:00,0.6,北,2.1,西北西,16.6,96.8,0,2,23,29.5
373,2022-06-06T06:12:00,0.5,北,1.6,北,16.6,96.8,0.5,2.5,23.5,30
374,2022-06-06T06:13:00,0.6,北,1.6,北,16.6,96.7,0.5,2.5,23.5,30
375,2022-06-06T06:14:00,0.6,北,1.6,北,16.6,96.7,0.5,2.5,23.5,30
376,2022-06-06T06:15:00,0.6,北,1.6,北,16.6,96.8,0.5,2.5,23.5,30
377,2022-06-06T06:16:00,0.6,北,1.6,北,16.5,96.7,0.5,2.5,23.5,30
378,2022-06-06T06:17:00,0.7,北北西,1.9,北西,16.5,96.7,1,2.5,24,30.5
379,2022-06-06T06:18:00,0.8,北北西,1.9,北西,16.5,96.7,1,2.5,24,30.5
380,2022-06-06T06:19:00,0.9,北北西,2.1,北西,16.5,96.8,1,2.5,24,30.5
381,2022-06-06T06:20:00,1,北北西,2.1,北西,16.5,96.8,1,2.5,24,30.5
382,2022-06-06T06:21:00,0.9,北北西,2.1,北西,16.5,97,1,2.5,24,30.5
383,2022-06-06T06:22:00,0.8,北北西,2.1,北西,16.5,97.1,1,3,24.5,31
384,2022-06-06T06:23:00,0.8,北北西,2.1,北西,16.6,97.1,1,3,24.5,31
385,2022-06-06T06:24:00,0.8,北北西,2.1,北西,16.5,97.1,1,3,24.5,31
386,2022-06-06T06:25:00,0.8,北北西,2.1,北西,16.5,97.1,1,3,24.5,31
387,2022-06-06T06:26:00,0.7,北西,2.1,北西,16.5,97.1,1,3,24.5,31
388,2022-06-06T06:27:00,0.6,北西,2.1,北西,16.5,97.1,0.5,3,24.5,31
389,2022-06-06T06:28:00,0.5,北西,2.1,北西,16.5,97.1,0.5,3,24.5,31
390,2022-06-06T06:29:00,0.4,北西,1.6,北北西,16.5,97.1,1,3.5,25,31.5
391,2022-06-06T06:30:00,0.3,北西,1.2,北北西,16.5,97.1,1,3.5,25,31.5
392,2022-06-06T06:31:00,0.3,北西,1.2,北北西,16.5,97.2,1,3.5,25,31.5
393,2022-06-06T06:32:00,0.3,西北西,1.2,北北西,16.4,97,0.5,3.5,25,31.5
394,2022-06-06T06:33:00,0.2,静穏,1,北北西,16.4,97.1,0.5,3.5,25,31.5
395,2022-06-06T06:34:00,0.2,静穏,0.6,西,16.5,97.2,0.5,3.5,25,31.5
396,2022-06-06T06:35:00,0.1,静穏,0.6,西,16.5,97.3,0.5,3,25,31.5